Lake Travis Weather Center

Moon Phase Calendar



Lake Travis Water Level
Online Cameras

 


      

Current Conditions in Lago Vista
4/23/2024 2:12:36 AM

58°F
Feels Like 58
Clear
Humidity
81%
Pressure
29.97"
Wind
10.4 mph (S)
Dew Point
52°F
UV Index
0/10 (Low)
Visibility
6 mi

Hourly Forecast

Date & Time Tue, Apr 23
2:00 AM
Tue, Apr 23
3:00 AM
Tue, Apr 23
4:00 AM
Tue, Apr 23
5:00 AM
Tue, Apr 23
6:00 AM
Tue, Apr 23
7:00 AM
Tue, Apr 23
8:00 AM
Tue, Apr 23
9:00 AM
Tue, Apr 23
10:00 AM
Tue, Apr 23
11:00 AM
Tue, Apr 23
12:00 PM
Tue, Apr 23
1:00 PM
Tue, Apr 23
2:00 PM
Tue, Apr 23
3:00 PM
Tue, Apr 23
4:00 PM
Tue, Apr 23
5:00 PM
Tue, Apr 23
6:00 PM
Tue, Apr 23
7:00 PM
Tue, Apr 23
8:00 PM
Tue, Apr 23
9:00 PM
Tue, Apr 23
10:00 PM
Tue, Apr 23
11:00 PM
Wed, Apr 24
12:00 AM
Wed, Apr 24
1:00 AM
Wed, Apr 24
2:00 AM
Wed, Apr 24
3:00 AM
Wed, Apr 24
4:00 AM
Wed, Apr 24
5:00 AM
Wed, Apr 24
6:00 AM
Wed, Apr 24
7:00 AM
Wed, Apr 24
8:00 AM
Wed, Apr 24
9:00 AM
Wed, Apr 24
10:00 AM
Wed, Apr 24
11:00 AM
Wed, Apr 24
12:00 PM
Wed, Apr 24
1:00 PM
Wed, Apr 24
2:00 PM
Wed, Apr 24
3:00 PM
Wed, Apr 24
4:00 PM
Wed, Apr 24
5:00 PM
Wed, Apr 24
6:00 PM
Wed, Apr 24
7:00 PM
Wed, Apr 24
8:00 PM
Wed, Apr 24
9:00 PM
Wed, Apr 24
10:00 PM
Wed, Apr 24
11:00 PM
Thu, Apr 25
12:00 AM
Thu, Apr 25
1:00 AM
Condition
Clear

Clear

Clear

Clear

Clear

Clear

Clear

Clear

Clouds

Clouds

Clouds

Clouds

Clouds

Clouds

Clouds

Clouds

Clouds

Clouds

Clouds

Clouds

Clouds

Clouds

Clouds

Clouds

Clear

Clouds

Clouds

Clouds

Clouds

Clouds

Clouds

Clouds

Clouds

Clouds

Clouds

Clouds

Clouds

Clouds

Clouds

Clouds

Clouds

Clouds

Clouds

Clouds

Clouds

Clouds

Clouds

Clouds
Temperature 58°F58°F57°F57°F56°F56°F58°F63°F68°F72°F75°F77°F77°F77°F75°F74°F75°F73°F70°F68°F68°F67°F66°F64°F64°F63°F63°F65°F66°F67°F67°F68°F69°F71°F75°F81°F80°F78°F79°F79°F76°F76°F74°F73°F72°F70°F69°F68°F
Feels Like 58°F57°F57°F56°F56°F56°F58°F63°F68°F72°F75°F77°F78°F77°F75°F74°F75°F74°F71°F69°F69°F68°F66°F65°F64°F64°F64°F65°F67°F68°F68°F69°F70°F72°F76°F83°F80°F79°F79°F79°F77°F77°F75°F74°F72°F71°F70°F69°F
Cloudiness 0%0%0%0%0%0%1%2%15%26%32%38%85%83%85%90%87%88%25%31%38%36%29%24%2%15%28%42%53%61%100%100%100%100%99%95%100%100%100%100%100%100%100%100%97%99%100%100%
Visibility 6 mi6 mi6 mi6 mi6 mi6 mi6 mi6 mi6 mi6 mi6 mi6 mi6 mi6 mi6 mi6 mi6 mi6 mi6 mi6 mi6 mi6 mi6 mi6 mi6 mi6 mi6 mi1 mi6 mi6 mi6 mi6 mi6 mi6 mi6 mi6 mi6 mi6 mi6 mi6 mi6 mi6 mi6 mi6 mi6 mi6 mi6 mi6 mi
Precipitation 0%0%0%0%0%0%0%0%0%0%0%0%0%0%0%0%0%0%0%0%0%0%0%0%0%0%0%0%0%0%0%0%0%0%0%0%0%0%0%0%0%0%0%0%0%0%0%0%
Humidity 81%83%86%89%93%96%89%79%71%65%60%57%57%58%64%69%66%72%80%85%86%90%93%96%97%98%99%98%94%92%91%91%90%85%76%60%61%66%63%63%72%74%77%81%87%90%93%95%
Dew Point 52°F53°F53°F54°F54°F54°F55°F56°F58°F59°F60°F60°F61°F61°F62°F62°F63°F64°F63°F63°F64°F63°F63°F62°F62°F62°F63°F63°F64°F64°F65°F65°F66°F66°F66°F66°F65°F66°F65°F65°F66°F67°F66°F67°F67°F67°F67°F67°F
Pressure 29.97"30"30"30"30.03"30.06"30.06"30.06"30.06"30.06"30.03"30.03"30"29.97"29.97"29.97"29.94"29.94"29.97"30"30"30.03"30.03"30.03"30"30"30"30"30"30.03"30.06"30.06"30.09"30.09"30.06"30.03"30.03"30.03"30"29.97"29.97"29.97"30"30"30.03"30.03"30.03"30.03"
Wind Speed 9.1 mph8.1 mph7.4 mph7.1 mph7.1 mph6.9 mph7.6 mph10.7 mph12.6 mph13.5 mph14.5 mph14.9 mph14.9 mph15.7 mph15 mph12.6 mph12.3 mph12 mph11.2 mph10.9 mph10.8 mph10.4 mph8.5 mph7.2 mph7.7 mph6 mph5.8 mph10.1 mph10 mph9.2 mph8.4 mph7.7 mph8.3 mph9 mph9.5 mph11.5 mph12.1 mph12.1 mph11.2 mph10.7 mph10.6 mph8.9 mph9.2 mph8.6 mph9.7 mph12.1 mph11.2 mph10.6 mph
Wind
Direction
182°
S
181°
S
181°
S
188°
S
187°
S
187°
S
185°
S
192°
SSW
191°
S
190°
S
190°
S
191°
S
190°
S
188°
S
187°
S
186°
S
186°
S
179°
S
171°
S
166°
SSE
161°
SSE
166°
SSE
169°
S
172°
S
170°
S
160°
SSE
171°
S
187°
S
186°
S
178°
S
167°
SSE
161°
SSE
164°
SSE
162°
SSE
165°
SSE
159°
SSE
157°
SSE
155°
SSE
159°
SSE
167°
SSE
160°
SSE
150°
SSE
151°
SSE
158°
SSE
155°
SSE
161°
SSE
165°
SSE
171°
S

Daily Forecast

Date High Low Precip. Humidity
Today
Apr 23

Clouds
77 °F
56 °F
0%
57%
Wednesday
Apr 24

Clouds
81 °F
63 °F
0%
60%
Thursday
Apr 25

Clouds
83 °F
67 °F
0%
70%
Friday
Apr 26

Rain
78 °F
70 °F
37%
73%
Saturday
Apr 27

Rain
86 °F
72 °F
34%
50%
Sunday
Apr 28

Rain
89 °F
72 °F
56%
55%
Monday
Apr 29

Clouds
95 °F
69 °F
0%
33%
Tuesday
Apr 30

Clouds
91 °F
68 °F
0%
46%
Wednesday
May 1

Clouds
86 °F
69 °F
0%
55%
Thursday
May 2

Clouds
86 °F
70 °F
0%
66%
Friday
May 3

Rain
88 °F
68 °F
100%
56%
Saturday
May 4

Rain
90 °F
68 °F
100%
48%
Sunday
May 5

Clouds
92 °F
68 °F
0%
31%
Monday
May 6

Clouds
88 °F
66 °F
0%
36%
Tuesday
May 7

Clouds
91 °F
64 °F
0%
51%
Wednesday
May 8

Clouds
92 °F
66 °F
0%
47%

Temperature 8-14 Day Outlook



Precipitation 8-14 Day Outlook






About Us
Contact Us
Site Map
Search Site
Advertise With Us
   
Travis.USLakes.info
THE LAKE TRAVIS WEBSITE

Copyright 2024, Lakes Online
Privacy    |    Legal